When you browse on this site, cookies collect data to enhance your experience and personalize the content and advertising you see.
Visit our Privacy Policy to learn more. By continuing to use the site, you agree to this use of cookies and data.
  • In Hungary
  • List of Countries
  • For 7 days
  • Water Temperature
  • Satellite Maps
  • Weather Map
  • News
  • Weather Widgets
  • user-avatar
    Login

    Hourly Weather Rathenow

    Today, 23 February, Saturday

    Time Temperature Precipitation Wind Pressure Humidity
    00:00 -2°C° 0 mm 2 mps 780 mmHg 62%
    01:00 -2°C° 0 mm 2 mps 780 mmHg 64%
    02:00 -2°C° 0 mm 2 mps 780 mmHg 63%
    03:00 -2°C° 0 mm 2 mps 780 mmHg 62%
    04:00 -3°C° 0 mm 2 mps 779 mmHg 61%
    05:00 -3°C° 0 mm 2 mps 779 mmHg 61%
    06:00 -3°C° 0 mm 2 mps 779 mmHg 60%
    07:00 -3°C° 0 mm 2 mps 780 mmHg 60%
    08:00 -2°C° 0 mm 2 mps 779 mmHg 53%
    09:00 -1°C° 0 mm 2 mps 779 mmHg 46%
    10:00 +2°C° 0 mm 2 mps 779 mmHg 39%
    11:00 +2°C° 0 mm 3 mps 779 mmHg 36%
    12:00 +3°C° 0 mm 3 mps 779 mmHg 33%
    13:00 +5°C° 0 mm 3 mps 778 mmHg 29%
    14:00 +6°C° 0 mm 2 mps 778 mmHg 32%
    15:00 +6°C° 0 mm 2 mps 778 mmHg 35%
    16:00 +6°C° 0 mm 2 mps 777 mmHg 38%
    17:00 +5°C° 0 mm 2 mps 777 mmHg 42%
    18:00 +3°C° 0 mm 2 mps 777 mmHg 47%
    19:00 +2°C° 0 mm 2 mps 777 mmHg 51%
    20:00 +1°C° 0 mm 2 mps 777 mmHg 52%
    21:00 +1°C° 0 mm 2 mps 777 mmHg 53%
    22:00 +2°C° 0 mm 1 mps 778 mmHg 54%
    23:00 +1°C° 0 mm 1 mps 777 mmHg 54%

    Tomorrow, 24 February, Sunday

    Time Temperature Precipitation Wind Pressure Humidity
    00:00 +1°C° 0 mm 1 mps 777 mmHg 53%
    01:00 +1°C° 0 mm 1 mps 777 mmHg 53%
    02:00 +1°C° 0 mm 1 mps 777 mmHg 53%
    03:00 +1°C° 0 mm 1 mps 777 mmHg 53%
    04:00 +1°C° 0 mm 1 mps 776 mmHg 52%
    05:00 +1°C° 0 mm 1 mps 776 mmHg 52%
    06:00 +1°C° 0 mm 1 mps 776 mmHg 53%
    07:00 +1°C° 0 mm 1 mps 776 mmHg 53%
    08:00 +3°C° 0 mm 1 mps 776 mmHg 49%
    09:00 +5°C° 0 mm 1 mps 776 mmHg 45%
    10:00 +7°C° 0 mm 1 mps 776 mmHg 41%
    11:00 +8°C° 0 mm 1 mps 776 mmHg 40%
    12:00 +9°C° 0 mm 1 mps 776 mmHg 38%
    13:00 +11°C° 0 mm 1 mps 776 mmHg 36%
    14:00 +11°C° 0 mm 1 mps 776 mmHg 41%
    15:00 +11°C° 0 mm 1 mps 776 mmHg 45%
    16:00 +11°C° 0 mm 1 mps 775 mmHg 50%
    17:00 +9°C° 0 mm 1 mps 776 mmHg 53%
    18:00 +7°C° 0 mm 2 mps 776 mmHg 56%
    19:00 +5°C° 0 mm 2 mps 776 mmHg 59%
    20:00 +5°C° 0 mm 2 mps 776 mmHg 60%
    21:00 +4°C° 0 mm 2 mps 776 mmHg 61%
    22:00 +5°C° 0 mm 1 mps 776 mmHg 63%
    23:00 +5°C° 0 mm 1 mps 776 mmHg 65%

    Day after tomorrow, 25 February, Monday

    Time Temperature Precipitation Wind Pressure Humidity
    00:00 +4°C° 0 mm 1 mps 776 mmHg 67%
    01:00 +4°C° 0 mm 1 mps 776 mmHg 70%
    02:00 +4°C° 0 mm 1 mps 776 mmHg 72%
    03:00 +3°C° 0 mm 1 mps 776 mmHg 74%
    04:00 +3°C° 0 mm 1 mps 776 mmHg 76%
    05:00 +3°C° 0 mm 1 mps 776 mmHg 77%
    06:00 +3°C° 0 mm 1 mps 776 mmHg 77%
    07:00 +3°C° 0 mm 1 mps 776 mmHg 78%
    08:00 +3°C° 0 mm 2 mps 776 mmHg 73%
    09:00 +5°C° 0 mm 2 mps 776 mmHg 67%
    10:00 +7°C° 0 mm 2 mps 776 mmHg 61%
    11:00 +8°C° 0 mm 2 mps 776 mmHg 56%
    12:00 +9°C° 0 mm 2 mps 776 mmHg 52%
    13:00 +12°C° 0 mm 2 mps 775 mmHg 47%
    14:00 +12°C° 0 mm 2 mps 775 mmHg 49%
    15:00 +12°C° 0 mm 2 mps 775 mmHg 52%
    16:00 +12°C° 0 mm 2 mps 774 mmHg 54%
    17:00 +10°C° 0 mm 2 mps 774 mmHg 59%
    18:00 +8°C° 0 mm 2 mps 774 mmHg 64%
    19:00 +6°C° 0 mm 2 mps 774 mmHg 69%
    20:00 +6°C° 0 mm 2 mps 774 mmHg 69%
    21:00 +5°C° 0 mm 2 mps 774 mmHg 70%
    22:00 +5°C° 0 mm 2 mps 774 mmHg 71%
    23:00 +5°C° 0 mm 2 mps 774 mmHg 72%

    26 February, Tuesday

    Time Temperature Precipitation Wind Pressure Humidity
    00:00 +4°C° 0 mm 2 mps 774 mmHg 74%
    01:00 +4°C° 0 mm 2 mps 774 mmHg 75%
    02:00 +4°C° 0 mm 2 mps 773 mmHg 75%
    03:00 +3°C° 0 mm 2 mps 773 mmHg 76%
    04:00 +3°C° 0 mm 2 mps 773 mmHg 76%
    05:00 +3°C° 0 mm 2 mps 773 mmHg 76%
    06:00 +2°C° 0 mm 3 mps 773 mmHg 77%
    07:00 +1°C° 0 mm 3 mps 773 mmHg 77%
    08:00 +3°C° 0 mm 3 mps 772 mmHg 72%
    09:00 +5°C° 0 mm 3 mps 772 mmHg 67%
    10:00 +7°C° 0 mm 3 mps 772 mmHg 62%
    11:00 +9°C° 0 mm 3 mps 772 mmHg 59%
    12:00 +10°C° 0 mm 3 mps 772 mmHg 57%
    13:00 +12°C° 0 mm 4 mps 772 mmHg 54%
    14:00 +12°C° 0 mm 3 mps 771 mmHg 56%
    15:00 +12°C° 0 mm 3 mps 771 mmHg 57%
    16:00 +13°C° 0 mm 3 mps 771 mmHg 59%
    17:00 +11°C° 0 mm 3 mps 771 mmHg 64%
    18:00 +9°C° 0 mm 3 mps 771 mmHg 70%
    19:00 +8°C° 0 mm 2 mps 771 mmHg 76%
    20:00 +7°C° 0 mm 2 mps 771 mmHg 78%
    21:00 +7°C° 0 mm 3 mps 771 mmHg 80%
    22:00 +5°C° 0 mm 3 mps 771 mmHg 82%
    23:00 +6°C° 0 mm 2 mps 771 mmHg 83%

    27 February, Wednesday

    Time Temperature Precipitation Wind Pressure Humidity
    00:00 +6°C° 0 mm 2 mps 771 mmHg 85%
    01:00 +5°C° 0 mm 2 mps 770 mmHg 87%
    02:00 +5°C° 0 mm 2 mps 770 mmHg 88%
    03:00 +5°C° 0 mm 2 mps 770 mmHg 89%
    04:00 +4°C° 0 mm 2 mps 769 mmHg 90%
    05:00 +4°C° 0 mm 2 mps 769 mmHg 91%
    06:00 +3°C° 0 mm 3 mps 769 mmHg 91%
    07:00 +2°C° 0 mm 3 mps 769 mmHg 92%
    08:00 +4°C° 0 mm 3 mps 768 mmHg 86%
    09:00 +5°C° 0 mm 3 mps 768 mmHg 79%
    10:00 +8°C° 0 mm 3 mps 768 mmHg 73%
    11:00 +9°C° 0 mm 3 mps 767 mmHg 68%
    12:00 +11°C° 0 mm 3 mps 767 mmHg 64%
    13:00 +12°C° 0 mm 3 mps 766 mmHg 59%
    14:00 +12°C° 0 mm 3 mps 766 mmHg 59%
    15:00 +13°C° 0 mm 3 mps 765 mmHg 60%
    16:00 +13°C° 0 mm 3 mps 764 mmHg 60%
    17:00 +11°C° 0 mm 3 mps 764 mmHg 66%
    18:00 +9°C° 0 mm 2 mps 764 mmHg 72%
    19:00 +8°C° 0 mm 2 mps 764 mmHg 78%
    20:00 +7°C° 0 mm 2 mps 763 mmHg 80%
    21:00 +7°C° 0 mm 2 mps 763 mmHg 82%
    22:00 +6°C° 0 mm 2 mps 763 mmHg 85%
    23:00 +6°C° 0 mm 2 mps 762 mmHg 87%

    28 February, Thursday

    Time Temperature Precipitation Wind Pressure Humidity
    00:00 +6°C° 0 mm 2 mps 762 mmHg 89%
    01:00 +5°C° 0 mm 2 mps 761 mmHg 91%
    02:00 +5°C° 0 mm 2 mps 761 mmHg 92%
    03:00 +5°C° 0 mm 2 mps 761 mmHg 93%
    04:00 +4°C° 0 mm 2 mps 761 mmHg 93%
    05:00 +4°C° 0 mm 2 mps 760 mmHg 94%
    06:00 +4°C° 0 mm 2 mps 760 mmHg 94%
    07:00 +4°C° 0 mm 2 mps 760 mmHg 95%
    08:00 +4°C° 0 mm 3 mps 760 mmHg 90%
    09:00 +7°C° 0 mm 3 mps 760 mmHg 85%
    10:00 +8°C° 0 mm 3 mps 760 mmHg 80%
    11:00 +9°C° 0 mm 3 mps 760 mmHg 75%
    12:00 +10°C° 0 mm 3 mps 760 mmHg 71%
    13:00 +12°C° 0 mm 3 mps 760 mmHg 66%
    14:00 +12°C° 0 mm 3 mps 759 mmHg 66%
    15:00 +12°C° 0 mm 3 mps 759 mmHg 65%
    16:00 +12°C° 0 mm 3 mps 759 mmHg 65%
    17:00 +10°C° 0 mm 3 mps 759 mmHg 72%
    18:00 +9°C° 0 mm 2 mps 759 mmHg 78%
    19:00 +7°C° 0 mm 2 mps 760 mmHg 85%
    20:00 +7°C° 0 mm 2 mps 760 mmHg 88%
    21:00 +6°C° 0 mm 2 mps 760 mmHg 90%
    22:00 +6°C° 0 mm 2 mps 760 mmHg 93%
    23:00 +5°C° 0 mm 2 mps 760 mmHg 94%
    Show more